sat.trackr.live / text

‹ back to catalog

STARLINK-32315

NORAD 60740 · 2024-152W

PAYLOAD ACTIVE UNKNOWN

§ Identity

Operator
Country
US
Launch date
2024-08-28
Launch site
AFETR
Launch vehicle
Mass (kg)
RCS (m²)

Purposes: comms

External: N2YO · Heavens-Above · Gunter

§ Orbital elements

Epoch: 2026-09-21T20:54:52.373664Z

Period
93.85 min
Inclination
53.1609°
Eccentricity
0.0001283
Mean motion
15.34386847 rev/d
Perigee alt
461.9 km
Apogee alt
463.6 km
Semi-major
6,840.9 km
B*
-1.8978e-6
RAAN
75.3026°
Arg perigee
105.5559°
Mean anomaly
254.5585°
Rev number
11,678

§ Raw data

STARLINK-323151 60740U 24152W   26264.87143951 -.00000440  00000+0 -18978-5 0  99962 60740  53.1609  75.3026 0001283 105.5559 254.5585 15.34386847116786

JSON: /api/v1/satellites/60740 · /tle

For live sub-satellite position, see the globe view (requires WebGL).

§ Visibility from observer

Set your observer location to see the next 7 days of passes ≥ 10°. The values pass through the URL so the page stays shareable.

No JS? Fill the form by hand. The geolocation button needs JavaScript.